Time,TemperatureF,DewpointF,PressureIn,WindDirection,WindDirectionDegrees,WindSpeedMPH,WindSpeedGustMPH,Humidity,HourlyPrecipIn,Conditions,Clouds,dailyrainin,SoftwareType,DateUTC
2013-08-06 00:02:00,71.7,67.3,29.88,ESE,116,0.0,0.0,86,0.00,,,0.00,VWS V14.01,2013-08-06 05:02:00,
2013-08-06 00:07:00,71.6,67.2,29.88,ESE,116,0.0,0.0,86,0.00,,,0.00,VWS V14.01,2013-08-06 05:07:00,
2013-08-06 00:12:00,71.5,67.4,29.88,ESE,116,0.0,0.0,87,0.00,,,0.00,VWS V14.01,2013-08-06 05:12:00,
2013-08-06 00:17:00,71.4,67.3,29.88,ESE,116,0.0,0.0,87,0.00,,,0.00,VWS V14.01,2013-08-06 05:17:00,
2013-08-06 00:22:00,71.3,67.2,29.88,ESE,116,0.0,0.0,87,0.00,,,0.00,VWS V14.01,2013-08-06 05:22:00,
2013-08-06 00:27:00,71.2,67.1,29.89,ESE,116,0.0,0.0,87,0.00,,,0.00,VWS V14.01,2013-08-06 05:27:00,
2013-08-06 00:32:00,71.1,67.0,29.89,ESE,116,0.0,0.0,87,0.00,,,0.00,VWS V14.01,2013-08-06 05:32:00,
2013-08-06 00:37:00,71.0,66.9,29.89,ESE,116,0.0,0.0,87,0.00,,,0.00,VWS V14.01,2013-08-06 05:37:00,
2013-08-06 00:42:00,70.9,66.8,29.89,ESE,116,0.0,0.0,87,0.00,,,0.00,VWS V14.01,2013-08-06 05:42:00,
2013-08-06 00:47:00,70.8,67.1,29.89,ESE,116,0.0,0.0,88,0.00,,,0.00,VWS V14.01,2013-08-06 05:47:00,
2013-08-06 00:52:00,70.7,67.0,29.89,ESE,116,0.0,0.0,88,0.00,,,0.00,VWS V14.01,2013-08-06 05:52:00,
2013-08-06 00:57:00,70.6,66.9,29.89,ESE,116,0.0,0.0,88,0.00,,,0.00,VWS V14.01,2013-08-06 05:57:00,
2013-08-06 01:02:00,70.6,66.9,29.88,ESE,116,0.0,0.0,88,0.00,,,0.00,VWS V14.01,2013-08-06 06:02:00,
2013-08-06 01:07:00,70.5,66.8,29.89,ESE,116,0.0,0.0,88,0.00,,,0.00,VWS V14.01,2013-08-06 06:07:00,
2013-08-06 01:12:00,70.4,66.7,29.88,ESE,116,0.0,0.0,88,0.00,,,0.00,VWS V14.01,2013-08-06 06:12:00,
2013-08-06 01:17:00,70.3,66.9,29.88,ESE,116,0.0,0.0,89,0.00,,,0.00,VWS V14.01,2013-08-06 06:17:00,
2013-08-06 01:22:00,70.3,66.9,29.88,ESE,116,0.0,0.0,89,0.00,,,0.00,VWS V14.01,2013-08-06 06:22:00,
2013-08-06 01:27:00,70.2,66.8,29.88,ESE,116,0.0,0.0,89,0.00,,,0.00,VWS V14.01,2013-08-06 06:27:00,
2013-08-06 01:32:00,70.2,66.8,29.88,ESE,116,0.0,0.0,89,0.00,,,0.00,VWS V14.01,2013-08-06 06:32:00,
2013-08-06 01:37:00,70.1,66.7,29.87,ESE,116,0.0,0.0,89,0.00,,,0.00,VWS V14.01,2013-08-06 06:37:00,
2013-08-06 01:42:00,70.1,66.7,29.87,ESE,116,0.0,0.0,89,0.00,,,0.00,VWS V14.01,2013-08-06 06:42:00,
2013-08-06 01:47:00,70.1,66.7,29.87,ESE,116,0.0,0.0,89,0.00,,,0.00,VWS V14.01,2013-08-06 06:47:00,
2013-08-06 01:52:00,70.0,66.6,29.86,ESE,116,0.0,0.0,89,0.00,,,0.00,VWS V14.01,2013-08-06 06:52:00,
2013-08-06 01:57:00,69.9,66.5,29.86,ESE,116,0.0,0.0,89,0.00,,,0.00,VWS V14.01,2013-08-06 06:57:00,
2013-08-06 02:02:00,69.9,66.5,29.85,ESE,116,0.0,0.0,89,0.00,,,0.00,VWS V14.01,2013-08-06 07:02:00,
2013-08-06 02:07:00,69.8,66.7,29.85,ESE,116,0.0,0.0,90,0.00,,,0.00,VWS V14.01,2013-08-06 07:07:00,
2013-08-06 02:12:00,69.8,66.7,29.85,ESE,116,0.0,0.0,90,0.00,,,0.00,VWS V14.01,2013-08-06 07:12:00,
2013-08-06 02:18:00,69.7,66.6,29.85,ESE,116,0.0,0.0,90,0.00,,,0.00,VWS V14.01,2013-08-06 07:18:00,
2013-08-06 02:23:00,69.6,66.5,29.85,ESE,116,0.0,0.0,90,0.00,,,0.00,VWS V14.01,2013-08-06 07:23:00,
2013-08-06 02:28:00,69.5,66.4,29.84,ESE,116,0.0,0.0,90,0.00,,,0.00,VWS V14.01,2013-08-06 07:28:00,
2013-08-06 02:33:00,69.5,66.4,29.84,ESE,116,0.0,0.0,90,0.00,,,0.00,VWS V14.01,2013-08-06 07:33:00,
2013-08-06 02:38:00,69.5,66.4,29.84,ESE,116,0.0,0.0,90,0.00,,,0.00,VWS V14.01,2013-08-06 07:38:00,
2013-08-06 02:43:00,69.5,66.4,29.84,ESE,116,0.0,0.0,90,0.00,,,0.00,VWS V14.01,2013-08-06 07:43:00,
2013-08-06 02:48:00,69.5,66.8,29.84,ESE,116,0.0,0.0,91,0.00,,,0.00,VWS V14.01,2013-08-06 07:48:00,
2013-08-06 02:53:00,69.6,66.9,29.84,ESE,116,0.0,0.0,91,0.00,,,0.00,VWS V14.01,2013-08-06 07:53:00,
2013-08-06 02:58:00,69.7,67.0,29.84,ESE,116,0.0,0.0,91,0.00,,,0.00,VWS V14.01,2013-08-06 07:58:00,
2013-08-06 03:03:00,69.7,67.0,29.84,ESE,116,0.0,0.0,91,0.00,,,0.00,VWS V14.01,2013-08-06 08:03:00,
2013-08-06 03:08:00,69.8,67.1,29.84,ESE,116,0.0,0.0,91,0.00,,,0.00,VWS V14.01,2013-08-06 08:08:00,
2013-08-06 03:13:00,69.9,67.2,29.84,ESE,116,0.0,0.0,91,0.00,,,0.00,VWS V14.01,2013-08-06 08:13:00,
2013-08-06 03:18:00,69.9,67.2,29.84,ESE,116,0.0,0.0,91,0.00,,,0.00,VWS V14.01,2013-08-06 08:18:00,
2013-08-06 03:23:00,70.0,67.3,29.84,ESE,116,0.0,0.0,91,0.00,,,0.00,VWS V14.01,2013-08-06 08:23:00,
2013-08-06 03:28:00,70.0,67.3,29.84,ESE,116,0.0,0.0,91,0.00,,,0.00,VWS V14.01,2013-08-06 08:28:00,
2013-08-06 03:33:00,70.1,67.4,29.84,ESE,116,0.0,0.0,91,0.00,,,0.00,VWS V14.01,2013-08-06 08:33:00,
2013-08-06 03:38:00,70.1,67.4,29.84,ESE,116,0.0,0.0,91,0.00,,,0.00,VWS V14.01,2013-08-06 08:38:00,
2013-08-06 03:43:00,70.3,67.6,29.84,ESE,116,0.0,2.0,91,0.00,,,0.00,VWS V14.01,2013-08-06 08:43:00,
2013-08-06 03:48:00,70.3,67.6,29.84,ESE,116,0.0,2.0,91,0.00,,,0.00,VWS V14.01,2013-08-06 08:48:00,
2013-08-06 03:53:00,70.4,67.7,29.85,ESE,116,0.0,2.0,91,0.00,,,0.00,VWS V14.01,2013-08-06 08:53:00,
2013-08-06 03:58:00,70.5,67.8,29.85,ESE,116,0.0,2.0,91,0.00,,,0.00,VWS V14.01,2013-08-06 08:58:00,
2013-08-06 04:03:00,70.5,67.8,29.85,ESE,116,0.0,0.0,91,0.00,,,0.00,VWS V14.01,2013-08-06 09:03:00,
2013-08-06 04:08:00,70.6,67.8,29.85,ESE,116,0.0,2.0,91,0.00,,,0.00,VWS V14.01,2013-08-06 09:08:00,
2013-08-06 04:13:00,70.6,67.8,29.85,ESE,116,0.0,2.0,91,0.00,,,0.00,VWS V14.01,2013-08-06 09:13:00,
2013-08-06 04:18:00,70.6,67.8,29.85,ESE,116,0.0,2.0,91,0.00,,,0.00,VWS V14.01,2013-08-06 09:18:00,
2013-08-06 04:23:00,70.7,67.9,29.85,ESE,116,0.0,2.0,91,0.00,,,0.00,VWS V14.01,2013-08-06 09:23:00,
2013-08-06 04:28:00,70.7,67.9,29.85,ESE,116,1.0,2.0,91,0.00,,,0.00,VWS V14.01,2013-08-06 09:28:00,
2013-08-06 04:33:00,70.7,67.9,29.85,ESE,116,0.0,0.0,91,0.00,,,0.00,VWS V14.01,2013-08-06 09:33:00,
2013-08-06 04:38:00,70.7,67.9,29.84,ESE,116,0.0,0.0,91,0.00,,,0.00,VWS V14.01,2013-08-06 09:38:00,
2013-08-06 04:43:00,70.7,67.9,29.85,ESE,116,0.0,0.0,91,0.00,,,0.00,VWS V14.01,2013-08-06 09:43:00,
2013-08-06 04:48:00,70.7,67.9,29.84,ESE,116,0.0,0.0,91,0.00,,,0.00,VWS V14.01,2013-08-06 09:48:00,
2013-08-06 04:53:00,70.7,67.9,29.84,ESE,116,0.0,0.0,91,0.00,,,0.00,VWS V14.01,2013-08-06 09:53:00,
2013-08-06 04:58:00,70.7,68.3,29.85,ESE,116,0.0,1.0,92,0.00,,,0.00,VWS V14.01,2013-08-06 09:58:00,
2013-08-06 05:03:00,70.8,68.4,29.85,ESE,116,0.0,1.0,92,0.00,,,0.00,VWS V14.01,2013-08-06 10:03:00,
2013-08-06 05:08:00,70.8,68.4,29.86,ESE,116,0.0,1.0,92,0.00,,,0.00,VWS V14.01,2013-08-06 10:08:00,
2013-08-06 05:13:00,70.8,68.4,29.86,ESE,116,0.0,1.0,92,0.00,,,0.00,VWS V14.01,2013-08-06 10:13:00,
2013-08-06 05:18:00,70.8,68.4,29.86,ESE,116,0.0,1.0,92,0.00,,,0.00,VWS V14.01,2013-08-06 10:18:00,
2013-08-06 05:23:00,70.8,68.4,29.86,ESE,116,0.0,1.0,92,0.00,,,0.00,VWS V14.01,2013-08-06 10:23:00,
2013-08-06 05:28:00,70.9,68.5,29.86,ESE,116,0.0,1.0,92,0.00,,,0.00,VWS V14.01,2013-08-06 10:28:00,
2013-08-06 05:33:00,70.9,68.5,29.85,ESE,116,1.0,2.0,92,0.00,,,0.00,VWS V14.01,2013-08-06 10:33:00,
2013-08-06 05:38:00,71.0,68.6,29.86,ESE,116,0.0,2.0,92,0.00,,,0.00,VWS V14.01,2013-08-06 10:38:00,
2013-08-06 05:43:00,71.0,68.6,29.86,ESE,121,0.0,2.0,92,0.00,,,0.00,VWS V14.01,2013-08-06 10:43:00,
2013-08-06 05:48:00,71.0,68.6,29.86,ESE,121,0.0,2.0,92,0.00,,,0.00,VWS V14.01,2013-08-06 10:48:00,
2013-08-06 05:53:00,71.0,68.6,29.86,ESE,121,0.0,2.0,92,0.00,,,0.00,VWS V14.01,2013-08-06 10:53:00,
2013-08-06 05:58:00,71.0,68.6,29.86,SE,126,0.0,4.0,92,0.00,,,0.00,VWS V14.01,2013-08-06 10:58:00,
2013-08-06 06:03:00,71.0,68.6,29.86,SE,126,0.0,0.0,92,0.00,,,0.00,VWS V14.01,2013-08-06 11:03:00,
2013-08-06 06:08:00,71.1,68.7,29.87,SE,132,0.0,2.0,92,0.00,,,0.00,VWS V14.01,2013-08-06 11:08:00,
2013-08-06 06:13:00,71.1,68.7,29.87,SE,132,0.0,2.0,92,0.00,,,0.00,VWS V14.01,2013-08-06 11:13:00,
2013-08-06 06:18:00,71.2,68.8,29.87,SE,142,0.0,2.0,92,0.00,,,0.00,VWS V14.01,2013-08-06 11:18:00,
2013-08-06 06:23:00,71.2,68.8,29.87,SE,139,0.0,2.0,92,0.00,,,0.00,VWS V14.01,2013-08-06 11:23:00,
2013-08-06 06:28:00,71.3,68.9,29.87,SE,139,1.0,2.0,92,0.00,,,0.00,VWS V14.01,2013-08-06 11:28:00,
2013-08-06 06:33:00,71.3,68.9,29.87,SE,140,1.0,1.0,92,0.00,,,0.00,VWS V14.01,2013-08-06 11:33:00,
2013-08-06 06:38:00,71.4,69.0,29.88,SE,140,0.0,2.0,92,0.00,,,0.00,VWS V14.01,2013-08-06 11:38:00,
2013-08-06 06:43:00,71.4,69.0,29.88,SE,140,0.0,2.0,92,0.00,,,0.00,VWS V14.01,2013-08-06 11:43:00,
2013-08-06 06:48:00,71.5,69.1,29.88,SE,141,0.0,4.0,92,0.00,,,0.00,VWS V14.01,2013-08-06 11:48:00,
2013-08-06 06:53:00,71.5,69.1,29.88,SE,141,0.0,4.0,92,0.00,,,0.00,VWS V14.01,2013-08-06 11:53:00,
2013-08-06 06:58:00,71.6,69.2,29.88,SE,141,0.0,4.0,92,0.00,,,0.00,VWS V14.01,2013-08-06 11:58:00,
2013-08-06 07:03:00,71.7,69.3,29.88,SE,141,0.0,1.0,92,0.00,,,0.00,VWS V14.01,2013-08-06 12:03:00,
2013-08-06 07:08:00,71.8,69.3,29.88,SE,141,0.0,1.0,92,0.00,,,0.00,VWS V14.01,2013-08-06 12:08:00,
2013-08-06 07:13:00,71.9,69.4,29.89,SE,142,0.0,2.0,92,0.00,,,0.00,VWS V14.01,2013-08-06 12:13:00,
2013-08-06 07:18:00,71.9,69.4,29.88,SE,142,0.0,2.0,92,0.00,,,0.00,VWS V14.01,2013-08-06 12:18:00,
2013-08-06 07:23:00,72.0,69.6,29.89,SE,142,0.0,2.0,92,0.00,,,0.00,VWS V14.01,2013-08-06 12:23:00,
2013-08-06 07:28:00,72.1,69.7,29.89,SE,142,0.0,2.0,92,0.00,,,0.00,VWS V14.01,2013-08-06 12:28:00,
2013-08-06 07:33:00,72.2,69.8,29.89,SE,142,0.0,0.0,92,0.00,,,0.00,VWS V14.01,2013-08-06 12:33:00,
2013-08-06 07:38:00,72.4,69.9,29.89,SE,142,0.0,0.0,92,0.00,,,0.00,VWS V14.01,2013-08-06 12:38:00,
2013-08-06 07:43:00,72.5,70.1,29.88,SE,142,0.0,0.0,92,0.00,,,0.00,VWS V14.01,2013-08-06 12:43:00,
2013-08-06 07:48:00,72.6,70.2,29.88,SE,142,0.0,0.0,92,0.00,,,0.00,VWS V14.01,2013-08-06 12:48:00,
2013-08-06 07:53:00,72.7,70.2,29.89,SE,142,0.0,0.0,92,0.00,,,0.00,VWS V14.01,2013-08-06 12:53:00,
2013-08-06 07:58:00,72.9,70.4,29.89,SE,142,0.0,2.0,92,0.00,,,0.00,VWS V14.01,2013-08-06 12:58:00,
2013-08-06 08:03:00,73.1,70.6,29.88,SE,142,0.0,0.0,92,0.00,,,0.00,VWS V14.01,2013-08-06 13:03:00,
2013-08-06 08:08:00,73.3,70.8,29.88,SE,142,0.0,0.0,92,0.00,,,0.00,VWS V14.01,2013-08-06 13:08:00,
2013-08-06 08:13:00,73.5,70.7,29.88,SE,142,0.0,0.0,91,0.00,,,0.00,VWS V14.01,2013-08-06 13:13:00,
2013-08-06 08:18:00,73.8,71.0,29.88,SE,142,0.0,0.0,91,0.00,,,0.00,VWS V14.01,2013-08-06 13:18:00,
2013-08-06 08:23:00,74.0,70.9,29.87,SE,142,0.0,2.0,90,0.00,,,0.00,VWS V14.01,2013-08-06 13:23:00,
2013-08-06 08:28:00,74.2,71.1,29.87,SE,142,0.0,2.0,90,0.00,,,0.00,VWS V14.01,2013-08-06 13:28:00,
2013-08-06 08:33:00,74.4,70.9,29.87,SSE,153,0.0,2.0,89,0.00,,,0.00,VWS V14.01,2013-08-06 13:33:00,
2013-08-06 08:38:00,74.6,71.2,29.87,SSE,153,0.0,2.0,89,0.00,,,0.00,VWS V14.01,2013-08-06 13:38:00,
2013-08-06 08:44:00,74.9,71.4,29.87,SSE,153,0.0,2.0,89,0.00,,,0.00,VWS V14.01,2013-08-06 13:44:00,
2013-08-06 08:49:00,75.2,71.4,29.87,SSE,153,0.0,2.0,88,0.00,,,0.00,VWS V14.01,2013-08-06 13:49:00,
2013-08-06 08:54:00,75.6,71.8,29.86,SSE,153,0.0,2.0,88,0.00,,,0.00,VWS V14.01,2013-08-06 13:54:00,
2013-08-06 08:59:00,76.0,72.2,29.86,SSE,153,0.0,2.0,88,0.00,,,0.00,VWS V14.01,2013-08-06 13:59:00,
2013-08-06 09:04:00,76.3,71.8,29.87,SSE,151,0.0,4.0,86,0.00,,,0.00,VWS V14.01,2013-08-06 14:04:00,
2013-08-06 09:09:00,76.6,71.8,29.87,SSE,153,0.0,4.0,85,0.00,,,0.00,VWS V14.01,2013-08-06 14:09:00,
2013-08-06 09:14:00,77.1,71.9,29.87,SSE,153,0.0,4.0,84,0.00,,,0.00,VWS V14.01,2013-08-06 14:14:00,
2013-08-06 09:19:00,77.6,71.7,29.87,WNW,298,5.0,6.0,82,0.00,,,0.00,VWS V14.01,2013-08-06 14:19:00,
2013-08-06 09:24:00,78.1,71.4,29.87,WNW,287,0.0,6.0,80,0.00,,,0.00,VWS V14.01,2013-08-06 14:24:00,
2013-08-06 09:29:00,78.6,71.6,29.87,WSW,252,0.0,6.0,79,0.00,,,0.00,VWS V14.01,2013-08-06 14:29:00,
2013-08-06 09:34:00,79.1,71.7,29.87,SW,227,1.0,3.0,78,0.00,,,0.00,VWS V14.01,2013-08-06 14:34:00,
2013-08-06 09:39:00,79.4,71.9,29.87,WNW,284,0.0,8.0,78,0.00,,,0.00,VWS V14.01,2013-08-06 14:39:00,
2013-08-06 09:44:00,79.7,71.9,29.87,WNW,284,0.0,8.0,77,0.00,,,0.00,VWS V14.01,2013-08-06 14:44:00,
2013-08-06 09:49:00,79.9,71.7,29.86,WSW,248,1.0,8.0,76,0.00,,,0.00,VWS V14.01,2013-08-06 14:49:00,
2013-08-06 09:54:00,79.8,71.2,29.87,WNW,296,0.0,8.0,75,0.00,,,0.00,VWS V14.01,2013-08-06 14:54:00,
2013-08-06 09:59:00,79.8,71.6,29.86,WNW,296,0.0,8.0,76,0.00,,,0.00,VWS V14.01,2013-08-06 14:59:00,
2013-08-06 10:04:00,80.1,71.9,29.86,WNW,296,0.0,2.0,76,0.00,,,0.00,VWS V14.01,2013-08-06 15:04:00,
2013-08-06 10:09:00,80.3,72.1,29.86,WNW,296,0.0,2.0,76,0.00,,,0.00,VWS V14.01,2013-08-06 15:09:00,
2013-08-06 10:14:00,80.4,71.8,29.86,WNW,296,0.0,4.0,75,0.00,,,0.00,VWS V14.01,2013-08-06 15:14:00,
2013-08-06 10:24:00,80.3,72.4,29.86,WNW,296,0.0,4.0,77,0.00,,,0.00,VWS V14.01,2013-08-06 15:24:00,
2013-08-06 10:29:00,80.4,71.8,29.86,WNW,296,0.0,4.0,75,0.00,,,0.00,VWS V14.01,2013-08-06 15:29:00,
2013-08-06 10:34:00,80.5,71.8,29.86,WNW,296,0.0,2.0,75,0.00,,,0.00,VWS V14.01,2013-08-06 15:34:00,
2013-08-06 10:39:00,80.8,72.1,29.86,WNW,296,0.0,2.0,75,0.00,,,0.00,VWS V14.01,2013-08-06 15:39:00,
2013-08-06 10:44:00,81.2,72.5,29.86,WNW,296,4.0,4.0,75,0.00,,,0.00,VWS V14.01,2013-08-06 15:44:00,
2013-08-06 10:49:00,81.2,72.1,29.86,WNW,296,0.0,4.0,74,0.00,,,0.00,VWS V14.01,2013-08-06 15:49:00,
2013-08-06 10:54:00,81.2,72.1,29.86,WNW,296,2.0,4.0,74,0.00,,,0.00,VWS V14.01,2013-08-06 15:54:00,
2013-08-06 10:59:00,81.3,72.6,29.86,WNW,296,4.0,4.0,75,0.00,,,0.00,VWS V14.01,2013-08-06 15:59:00,
2013-08-06 11:04:00,81.1,72.0,29.86,WNW,294,1.0,6.0,74,0.00,,,0.00,VWS V14.01,2013-08-06 16:04:00,
2013-08-06 11:09:00,80.9,71.8,29.86,WNW,293,0.0,6.0,74,0.00,,,0.00,VWS V14.01,2013-08-06 16:09:00,
2013-08-06 11:14:00,81.1,72.0,29.86,WNW,288,0.0,6.0,74,0.00,,,0.00,VWS V14.01,2013-08-06 16:14:00,
2013-08-06 11:19:00,81.4,71.9,29.86,WNW,288,0.0,6.0,73,0.00,,,0.00,VWS V14.01,2013-08-06 16:19:00,
2013-08-06 11:24:00,81.7,71.8,29.86,WNW,288,0.0,6.0,72,0.00,,,0.00,VWS V14.01,2013-08-06 16:24:00,
2013-08-06 11:29:00,82.0,72.5,29.86,WNW,288,0.0,6.0,73,0.00,,,0.00,VWS V14.01,2013-08-06 16:29:00,
2013-08-06 11:34:00,82.2,72.3,29.86,WNW,288,4.0,5.0,72,0.00,,,0.00,VWS V14.01,2013-08-06 16:34:00,
2013-08-06 11:39:00,82.0,72.1,29.86,WNW,295,0.0,6.0,72,0.00,,,0.00,VWS V14.01,2013-08-06 16:39:00,
2013-08-06 11:44:00,81.9,72.8,29.86,WNW,295,0.0,6.0,74,0.00,,,0.00,VWS V14.01,2013-08-06 16:44:00,
2013-08-06 11:49:00,82.0,72.9,29.86,WNW,294,4.0,6.0,74,0.00,,,0.00,VWS V14.01,2013-08-06 16:49:00,
2013-08-06 11:54:00,82.1,72.2,29.86,WSW,246,0.0,6.0,72,0.00,,,0.00,VWS V14.01,2013-08-06 16:54:00,
2013-08-06 11:59:00,82.9,73.8,29.86,West,261,0.0,6.0,74,0.00,,,0.00,VWS V14.01,2013-08-06 16:59:00,
2013-08-06 12:04:00,83.4,73.8,29.85,West,265,0.0,3.0,73,0.00,,,0.00,VWS V14.01,2013-08-06 17:04:00,
2013-08-06 12:09:00,83.1,72.7,29.85,West,276,0.0,6.0,71,0.00,,,0.00,VWS V14.01,2013-08-06 17:09:00,
2013-08-06 12:14:00,83.0,74.3,29.85,West,277,5.0,6.0,75,0.00,,,0.00,VWS V14.01,2013-08-06 17:14:00,
2013-08-06 12:19:00,83.1,73.6,29.85,West,279,0.0,6.0,73,0.00,,,0.00,VWS V14.01,2013-08-06 17:19:00,
2013-08-06 12:24:00,83.5,73.1,29.85,WSW,250,0.0,6.0,71,0.00,,,0.00,VWS V14.01,2013-08-06 17:24:00,
2013-08-06 12:29:00,84.0,74.0,29.85,WSW,251,3.0,6.0,72,0.00,,,0.00,VWS V14.01,2013-08-06 17:29:00,
2013-08-06 12:34:00,83.9,72.7,29.85,WSW,251,2.0,3.0,69,0.00,,,0.00,VWS V14.01,2013-08-06 17:34:00,
2013-08-06 12:39:00,83.8,73.8,29.84,WSW,257,0.0,5.0,72,0.00,,,0.00,VWS V14.01,2013-08-06 17:39:00,
2013-08-06 12:44:00,83.9,73.5,29.84,WSW,258,0.0,5.0,71,0.00,,,0.00,VWS V14.01,2013-08-06 17:44:00,
2013-08-06 12:49:00,83.8,73.4,29.84,WSW,258,0.0,5.0,71,0.00,,,0.00,VWS V14.01,2013-08-06 17:49:00,
2013-08-06 12:59:00,83.9,73.5,29.84,WNW,286,0.0,7.0,71,0.00,,,0.00,VWS V14.01,2013-08-06 17:59:00,
2013-08-06 13:04:00,84.0,74.0,29.84,West,273,1.0,6.0,72,0.00,,,0.00,VWS V14.01,2013-08-06 18:04:00,
2013-08-06 13:09:00,84.1,73.3,29.84,West,263,1.0,6.0,70,0.00,,,0.00,VWS V14.01,2013-08-06 18:09:00,
2013-08-06 13:14:00,83.9,72.7,29.84,NW,304,0.0,6.0,69,0.00,,,0.00,VWS V14.01,2013-08-06 18:14:00,
2013-08-06 13:19:00,83.8,73.0,29.84,WNW,283,6.0,9.0,70,0.00,,,0.00,VWS V14.01,2013-08-06 18:19:00,
2013-08-06 13:24:00,83.5,73.1,29.84,WNW,282,0.0,9.0,71,0.00,,,0.00,VWS V14.01,2013-08-06 18:24:00,
2013-08-06 13:29:00,83.5,73.1,29.85,WNW,282,0.0,9.0,71,0.00,,,0.00,VWS V14.01,2013-08-06 18:29:00,
2013-08-06 13:34:00,83.5,72.7,29.84,WNW,285,2.0,2.0,70,0.00,,,0.00,VWS V14.01,2013-08-06 18:34:00,
2013-08-06 13:39:00,83.5,72.7,29.84,WNW,301,5.0,7.0,70,0.00,,,0.00,VWS V14.01,2013-08-06 18:39:00,
2013-08-06 13:44:00,83.4,72.6,29.84,WNW,298,0.0,7.0,70,0.00,,,0.00,VWS V14.01,2013-08-06 18:44:00,
2013-08-06 13:49:00,83.4,72.6,29.84,WNW,297,4.0,7.0,70,0.00,,,0.00,VWS V14.01,2013-08-06 18:49:00,
2013-08-06 13:54:00,83.4,72.6,29.84,WNW,297,0.0,7.0,70,0.00,,,0.00,VWS V14.01,2013-08-06 18:54:00,
2013-08-06 13:59:00,83.6,72.8,29.84,WNW,298,0.0,7.0,70,0.00,,,0.00,VWS V14.01,2013-08-06 18:59:00,
2013-08-06 14:04:00,83.8,73.4,29.84,WNW,298,2.0,7.0,71,0.00,,,0.00,VWS V14.01,2013-08-06 19:04:00,
2013-08-06 14:09:00,83.9,73.9,29.84,WNW,298,4.0,7.0,72,0.00,,,0.00,VWS V14.01,2013-08-06 19:09:00,
2013-08-06 14:14:00,83.9,74.3,29.84,WNW,299,0.0,7.0,73,0.00,,,0.00,VWS V14.01,2013-08-06 19:14:00,
2013-08-06 14:19:00,83.8,73.0,29.84,WNW,299,4.0,7.0,70,0.00,,,0.00,VWS V14.01,2013-08-06 19:19:00,
2013-08-06 14:24:00,83.5,73.1,29.84,NW,308,0.0,8.0,71,0.00,,,0.00,VWS V14.01,2013-08-06 19:24:00,
2013-08-06 14:29:00,83.4,73.8,29.84,NW,308,2.0,8.0,73,0.00,,,0.00,VWS V14.01,2013-08-06 19:29:00,
2013-08-06 14:34:00,83.3,73.3,29.84,WNW,286,12.0,12.0,72,0.00,,,0.00,VWS V14.01,2013-08-06 19:34:00,
2013-08-06 14:39:00,83.0,73.9,29.83,WNW,291,0.0,12.0,74,0.00,,,0.00,VWS V14.01,2013-08-06 19:39:00,
2013-08-06 14:44:00,83.0,73.5,29.83,WNW,302,0.0,12.0,73,0.00,,,0.00,VWS V14.01,2013-08-06 19:44:00,
2013-08-06 14:49:00,83.1,73.6,29.83,WNW,290,1.0,12.0,73,0.00,,,0.00,VWS V14.01,2013-08-06 19:49:00,
2013-08-06 14:54:00,83.2,74.5,29.83,NW,306,0.0,12.0,75,0.00,,,0.00,VWS V14.01,2013-08-06 19:54:00,
2013-08-06 14:59:00,83.5,73.5,29.83,WNW,288,0.0,12.0,72,0.00,,,0.00,VWS V14.01,2013-08-06 19:59:00,
2013-08-06 15:05:00,83.4,73.8,29.83,NW,313,0.0,9.0,73,0.00,,,0.00,VWS V14.01,2013-08-06 20:05:00,
2013-08-06 15:10:00,83.4,73.4,29.83,WNW,290,0.0,9.0,72,0.00,,,0.00,VWS V14.01,2013-08-06 20:10:00,
2013-08-06 15:15:00,83.3,74.2,29.83,WNW,288,4.0,9.0,74,0.00,,,0.00,VWS V14.01,2013-08-06 20:15:00,
2013-08-06 15:20:00,83.3,73.8,29.82,WNW,289,4.0,9.0,73,0.00,,,0.00,VWS V14.01,2013-08-06 20:20:00,
2013-08-06 15:25:00,83.2,73.7,29.82,WNW,300,2.0,9.0,73,0.00,,,0.00,VWS V14.01,2013-08-06 20:25:00,
2013-08-06 15:30:00,83.2,74.5,29.82,WNW,300,0.0,9.0,75,0.00,,,0.00,VWS V14.01,2013-08-06 20:30:00,
2013-08-06 15:35:00,83.4,73.8,29.82,WNW,298,5.0,6.0,73,0.00,,,0.00,VWS V14.01,2013-08-06 20:35:00,
2013-08-06 15:40:00,83.5,74.3,29.82,WNW,289,0.0,6.0,74,0.00,,,0.00,VWS V14.01,2013-08-06 20:40:00,
2013-08-06 15:45:00,83.6,73.6,29.82,WNW,293,6.0,6.0,72,0.00,,,0.00,VWS V14.01,2013-08-06 20:45:00,
2013-08-06 15:50:00,83.6,73.6,29.82,WNW,290,1.0,6.0,72,0.00,,,0.00,VWS V14.01,2013-08-06 20:50:00,
2013-08-06 15:55:00,83.6,74.0,29.82,WNW,290,0.0,6.0,73,0.00,,,0.00,VWS V14.01,2013-08-06 20:55:00,
2013-08-06 16:00:00,83.6,74.0,29.82,WNW,289,0.0,6.0,73,0.00,,,0.00,VWS V14.01,2013-08-06 21:00:00,
2013-08-06 16:05:00,83.6,73.6,29.82,WNW,289,0.0,4.0,72,0.00,,,0.00,VWS V14.01,2013-08-06 21:05:00,
2013-08-06 16:10:00,83.7,73.7,29.82,WNW,289,5.0,5.0,72,0.00,,,0.00,VWS V14.01,2013-08-06 21:10:00,
2013-08-06 16:15:00,83.7,74.1,29.82,WNW,289,0.0,5.0,73,0.00,,,0.00,VWS V14.01,2013-08-06 21:15:00,
2013-08-06 16:20:00,83.8,73.8,29.82,WNW,289,0.0,5.0,72,0.00,,,0.00,VWS V14.01,2013-08-06 21:20:00,
2013-08-06 16:25:00,83.9,73.5,29.83,WNW,289,0.0,5.0,71,0.00,,,0.00,VWS V14.01,2013-08-06 21:25:00,
2013-08-06 16:30:00,84.0,74.0,29.83,WNW,289,1.0,5.0,72,0.00,,,0.00,VWS V14.01,2013-08-06 21:30:00,
2013-08-06 16:35:00,83.9,74.3,29.83,WNW,289,0.0,2.0,73,0.00,,,0.00,VWS V14.01,2013-08-06 21:35:00,
2013-08-06 16:40:00,83.7,72.9,29.83,WNW,289,0.0,4.0,70,0.00,,,0.00,VWS V14.01,2013-08-06 21:40:00,
2013-08-06 16:45:00,83.6,73.6,29.82,WNW,289,0.0,4.0,72,0.00,,,0.00,VWS V14.01,2013-08-06 21:45:00,
2013-08-06 16:50:00,83.6,73.6,29.82,WNW,289,0.0,4.0,72,0.00,,,0.00,VWS V14.01,2013-08-06 21:50:00,
2013-08-06 16:55:00,83.6,73.6,29.83,WNW,285,0.0,5.0,72,0.00,,,0.00,VWS V14.01,2013-08-06 21:55:00,
2013-08-06 17:00:00,83.7,73.7,29.82,WNW,285,0.0,5.0,72,0.00,,,0.00,VWS V14.01,2013-08-06 22:00:00,
2013-08-06 17:05:00,83.9,73.9,29.83,WNW,286,0.0,2.0,72,0.00,,,0.00,VWS V14.01,2013-08-06 22:05:00,
2013-08-06 17:10:00,84.0,74.0,29.82,WNW,286,0.0,2.0,72,0.00,,,0.00,VWS V14.01,2013-08-06 22:10:00,
2013-08-06 17:15:00,84.2,73.8,29.83,WNW,287,0.0,2.0,71,0.00,,,0.00,VWS V14.01,2013-08-06 22:15:00,
2013-08-06 17:20:00,84.3,73.9,29.83,WNW,287,0.0,2.0,71,0.00,,,0.00,VWS V14.01,2013-08-06 22:20:00,
2013-08-06 17:25:00,84.1,73.7,29.83,WNW,287,0.0,5.0,71,0.00,,,0.00,VWS V14.01,2013-08-06 22:25:00,
2013-08-06 17:30:00,84.1,73.7,29.82,WNW,287,0.0,0.0,71,0.00,,,0.00,VWS V14.01,2013-08-06 22:30:00,
2013-08-06 17:35:00,84.2,74.2,29.82,WNW,287,0.0,4.0,72,0.00,,,0.00,VWS V14.01,2013-08-06 22:35:00,
2013-08-06 17:40:00,84.2,73.4,29.82,WNW,287,0.0,4.0,70,0.00,,,0.00,VWS V14.01,2013-08-06 22:40:00,
2013-08-06 17:45:00,84.3,73.9,29.82,WNW,287,0.0,4.0,71,0.00,,,0.00,VWS V14.01,2013-08-06 22:45:00,
2013-08-06 17:50:00,84.3,73.9,29.82,WNW,287,0.0,4.0,71,0.00,,,0.00,VWS V14.01,2013-08-06 22:50:00,
2013-08-06 17:55:00,84.2,73.8,29.82,WNW,287,2.0,4.0,71,0.00,,,0.00,VWS V14.01,2013-08-06 22:55:00,
2013-08-06 18:00:00,84.2,74.2,29.82,WNW,287,0.0,4.0,72,0.00,,,0.00,VWS V14.01,2013-08-06 23:00:00,
2013-08-06 18:05:00,84.2,73.8,29.82,WNW,287,0.0,2.0,71,0.00,,,0.00,VWS V14.01,2013-08-06 23:05:00,
2013-08-06 18:10:00,84.1,74.1,29.82,WNW,286,0.0,2.0,72,0.00,,,0.00,VWS V14.01,2013-08-06 23:10:00,
2013-08-06 18:15:00,84.1,74.1,29.82,WNW,286,0.0,2.0,72,0.00,,,0.00,VWS V14.01,2013-08-06 23:15:00,
2013-08-06 18:20:00,84.1,74.1,29.81,WNW,286,0.0,4.0,72,0.00,,,0.00,VWS V14.01,2013-08-06 23:20:00,
2013-08-06 18:25:00,84.1,74.5,29.81,WNW,286,0.0,4.0,73,0.00,,,0.00,VWS V14.01,2013-08-06 23:25:00,
2013-08-06 18:30:00,84.1,74.1,29.82,WNW,286,0.0,0.0,72,0.00,,,0.00,VWS V14.01,2013-08-06 23:30:00,
2013-08-06 18:35:00,84.1,74.1,29.82,WNW,286,0.0,0.0,72,0.00,,,0.00,VWS V14.01,2013-08-06 23:35:00,
2013-08-06 18:40:00,84.1,73.7,29.82,WNW,286,0.0,1.0,71,0.00,,,0.00,VWS V14.01,2013-08-06 23:40:00,
2013-08-06 18:46:00,84.2,74.2,29.82,WNW,286,0.0,1.0,72,0.00,,,0.00,VWS V14.01,2013-08-06 23:46:00,
2013-08-06 18:51:00,84.2,73.8,29.82,WNW,286,0.0,2.0,71,0.00,,,0.00,VWS V14.01,2013-08-06 23:51:00,
2013-08-06 18:56:00,84.3,74.3,29.82,WNW,286,0.0,2.0,72,0.00,,,0.00,VWS V14.01,2013-08-06 23:56:00,
2013-08-06 19:01:00,84.3,73.9,29.82,WNW,286,0.0,0.0,71,0.00,,,0.00,VWS V14.01,2013-08-07 00:01:00,
2013-08-06 19:06:00,84.3,74.3,29.82,WNW,286,0.0,0.0,72,0.00,,,0.00,VWS V14.01,2013-08-07 00:06:00,
2013-08-06 19:11:00,84.3,73.5,29.81,WNW,286,0.0,0.0,70,0.00,,,0.00,VWS V14.01,2013-08-07 00:11:00,
2013-08-06 19:16:00,84.3,73.9,29.81,WNW,286,0.0,0.0,71,0.00,,,0.00,VWS V14.01,2013-08-07 00:16:00,
2013-08-06 19:21:00,84.2,74.6,29.81,WNW,286,0.0,0.0,73,0.00,,,0.00,VWS V14.01,2013-08-07 00:21:00,
2013-08-06 19:26:00,84.0,74.0,29.81,WNW,286,0.0,0.0,72,0.00,,,0.00,VWS V14.01,2013-08-07 00:26:00,
2013-08-06 19:31:00,83.8,74.2,29.81,WNW,286,0.0,0.0,73,0.00,,,0.00,VWS V14.01,2013-08-07 00:31:00,
2013-08-06 19:36:00,83.6,74.0,29.81,WNW,286,0.0,0.0,73,0.00,,,0.00,VWS V14.01,2013-08-07 00:36:00,
2013-08-06 19:41:00,83.2,74.1,29.81,WNW,286,0.0,0.0,74,0.00,,,0.00,VWS V14.01,2013-08-07 00:41:00,
2013-08-06 19:46:00,82.9,73.8,29.81,WNW,286,0.0,0.0,74,0.00,,,0.00,VWS V14.01,2013-08-07 00:46:00,
2013-08-06 19:51:00,82.6,73.9,29.81,WNW,286,0.0,0.0,75,0.00,,,0.00,VWS V14.01,2013-08-07 00:51:00,
2013-08-06 19:56:00,82.1,73.4,29.81,WNW,286,0.0,0.0,75,0.00,,,0.00,VWS V14.01,2013-08-07 00:56:00,
2013-08-06 20:01:00,81.6,73.3,29.81,WNW,286,0.0,0.0,76,0.00,,,0.00,VWS V14.01,2013-08-07 01:01:00,
2013-08-06 20:06:00,81.0,73.1,29.81,WNW,286,0.0,0.0,77,0.00,,,0.00,VWS V14.01,2013-08-07 01:06:00,
2013-08-06 20:11:00,80.5,73.0,29.81,WNW,286,0.0,0.0,78,0.00,,,0.00,VWS V14.01,2013-08-07 01:11:00,
2013-08-06 20:16:00,80.0,72.9,29.81,WNW,286,0.0,0.0,79,0.00,,,0.00,VWS V14.01,2013-08-07 01:16:00,
2013-08-06 20:21:00,79.4,72.7,29.82,WNW,286,0.0,0.0,80,0.00,,,0.00,VWS V14.01,2013-08-07 01:21:00,
2013-08-06 20:26:00,78.9,72.6,29.81,WNW,286,0.0,0.0,81,0.00,,,0.00,VWS V14.01,2013-08-07 01:26:00,
2013-08-06 20:31:00,78.6,72.3,29.81,WNW,286,0.0,0.0,81,0.00,,,0.00,VWS V14.01,2013-08-07 01:31:00,
2013-08-06 20:36:00,78.4,72.4,29.81,WNW,286,0.0,0.0,82,0.00,,,0.00,VWS V14.01,2013-08-07 01:36:00,
2013-08-06 20:41:00,78.3,72.4,29.82,WNW,286,0.0,0.0,82,0.00,,,0.00,VWS V14.01,2013-08-07 01:41:00,
2013-08-06 20:46:00,78.1,72.5,29.82,WNW,286,0.0,0.0,83,0.00,,,0.00,VWS V14.01,2013-08-07 01:46:00,
2013-08-06 20:51:00,77.9,72.3,29.82,WNW,286,0.0,0.0,83,0.00,,,0.00,VWS V14.01,2013-08-07 01:51:00,
2013-08-06 20:56:00,77.6,72.4,29.82,WNW,286,0.0,0.0,84,0.00,,,0.00,VWS V14.01,2013-08-07 01:56:00,
2013-08-06 21:01:00,77.4,72.2,29.82,WNW,286,0.0,0.0,84,0.00,,,0.00,VWS V14.01,2013-08-07 02:01:00,
2013-08-06 21:06:00,77.2,72.0,29.82,WNW,286,0.0,0.0,84,0.00,,,0.00,VWS V14.01,2013-08-07 02:06:00,
2013-08-06 21:11:00,77.0,71.8,29.82,WNW,286,0.0,0.0,84,0.00,,,0.00,VWS V14.01,2013-08-07 02:11:00,
2013-08-06 21:16:00,76.8,71.9,29.83,WNW,286,0.0,0.0,85,0.00,,,0.00,VWS V14.01,2013-08-07 02:16:00,
2013-08-06 21:21:00,76.6,71.8,29.83,WNW,286,0.0,0.0,85,0.00,,,0.00,VWS V14.01,2013-08-07 02:21:00,
2013-08-06 21:26:00,76.5,72.0,29.84,WNW,286,0.0,0.0,86,0.00,,,0.00,VWS V14.01,2013-08-07 02:26:00,
2013-08-06 21:31:00,76.4,71.9,29.84,WNW,286,0.0,0.0,86,0.00,,,0.00,VWS V14.01,2013-08-07 02:31:00,
2013-08-06 21:36:00,76.3,71.8,29.84,WNW,286,0.0,0.0,86,0.00,,,0.00,VWS V14.01,2013-08-07 02:36:00,
2013-08-06 21:41:00,76.1,71.6,29.85,WNW,286,0.0,0.0,86,0.00,,,0.00,VWS V14.01,2013-08-07 02:41:00,
2013-08-06 21:46:00,75.9,71.4,29.85,WNW,286,0.0,0.0,86,0.00,,,0.00,VWS V14.01,2013-08-07 02:46:00,
2013-08-06 21:51:00,75.8,71.3,29.85,WNW,286,0.0,0.0,86,0.00,,,0.00,VWS V14.01,2013-08-07 02:51:00,
2013-08-06 21:56:00,75.7,71.6,29.85,WNW,286,0.0,0.0,87,0.00,,,0.00,VWS V14.01,2013-08-07 02:56:00,
2013-08-06 22:01:00,75.6,71.5,29.85,WNW,286,0.0,0.0,87,0.00,,,0.00,VWS V14.01,2013-08-07 03:01:00,
2013-08-06 22:06:00,75.5,71.4,29.85,WNW,286,0.0,0.0,87,0.00,,,0.00,VWS V14.01,2013-08-07 03:06:00,
2013-08-06 22:11:00,75.3,71.2,29.85,WNW,286,0.0,0.0,87,0.00,,,0.00,VWS V14.01,2013-08-07 03:11:00,
2013-08-06 22:16:00,75.2,71.1,29.85,WNW,286,0.0,0.0,87,0.00,,,0.00,VWS V14.01,2013-08-07 03:16:00,
2013-08-06 22:21:00,75.0,71.2,29.86,WNW,286,0.0,0.0,88,0.00,,,0.00,VWS V14.01,2013-08-07 03:21:00,
2013-08-06 22:26:00,74.9,71.1,29.85,WNW,286,0.0,0.0,88,0.00,,,0.00,VWS V14.01,2013-08-07 03:26:00,
2013-08-06 22:31:00,74.7,70.9,29.85,WNW,286,0.0,0.0,88,0.00,,,0.00,VWS V14.01,2013-08-07 03:31:00,
2013-08-06 22:36:00,74.5,70.7,29.85,WNW,286,0.0,0.0,88,0.00,,,0.00,VWS V14.01,2013-08-07 03:36:00,
2013-08-06 22:41:00,74.4,70.9,29.85,WNW,286,0.0,0.0,89,0.00,,,0.00,VWS V14.01,2013-08-07 03:41:00,
2013-08-06 22:46:00,74.3,70.8,29.85,WNW,286,0.0,0.0,89,0.00,,,0.00,VWS V14.01,2013-08-07 03:46:00,
2013-08-06 22:51:00,74.2,70.8,29.85,WNW,286,0.0,0.0,89,0.00,,,0.00,VWS V14.01,2013-08-07 03:51:00,
2013-08-06 22:56:00,74.1,70.7,29.86,WNW,286,0.0,0.0,89,0.00,,,0.00,VWS V14.01,2013-08-07 03:56:00,
2013-08-06 23:01:00,74.0,70.6,29.85,WNW,286,0.0,0.0,89,0.00,,,0.00,VWS V14.01,2013-08-07 04:01:00,
2013-08-06 23:06:00,73.9,70.5,29.85,WNW,286,0.0,0.0,89,0.00,,,0.00,VWS V14.01,2013-08-07 04:06:00,
2013-08-06 23:11:00,73.8,70.4,29.86,WNW,286,0.0,0.0,89,0.00,,,0.00,VWS V14.01,2013-08-07 04:11:00,
2013-08-06 23:16:00,73.7,70.6,29.85,WNW,286,0.0,0.0,90,0.00,,,0.00,VWS V14.01,2013-08-07 04:16:00,
2013-08-06 23:21:00,73.6,70.5,29.86,WNW,286,0.0,0.0,90,0.00,,,0.00,VWS V14.01,2013-08-07 04:21:00,
2013-08-06 23:26:00,73.5,70.4,29.85,WNW,286,0.0,0.0,90,0.00,,,0.00,VWS V14.01,2013-08-07 04:26:00,
2013-08-06 23:31:00,73.4,70.3,29.85,WNW,286,0.0,0.0,90,0.00,,,0.00,VWS V14.01,2013-08-07 04:31:00,
2013-08-06 23:36:00,73.4,70.3,29.85,WNW,286,0.0,0.0,90,0.00,,,0.00,VWS V14.01,2013-08-07 04:36:00,
2013-08-06 23:41:00,73.3,70.2,29.85,WNW,286,0.0,0.0,90,0.00,,,0.00,VWS V14.01,2013-08-07 04:41:00,
2013-08-06 23:46:00,73.3,70.2,29.86,WNW,286,0.0,0.0,90,0.00,,,0.00,VWS V14.01,2013-08-07 04:46:00,
2013-08-06 23:51:00,73.2,70.1,29.86,WNW,286,0.0,0.0,90,0.00,,,0.00,VWS V14.01,2013-08-07 04:51:00,
2013-08-06 23:56:00,73.2,70.4,29.85,WNW,286,0.0,0.0,91,0.00,,,0.00,VWS V14.01,2013-08-07 04:56:00,